This is the latest recevied weather packets stored in our database for station/object N2WH. If no packets are shown the sender has not sent any weather packets the latest 10 day(s).
| Time | Temp. | Humidity | Pressure | Rain* | Wind** | Luminosity | Snow |
|---|---|---|---|---|---|---|---|
| 1777791864 | 6.67° C | 58% | 1011.6 hPa | 0 mm | - | 0 W/m² | - |
| 1777791563 | 6.67° C | 58% | 1011.5 hPa | 0 mm | - | 0 W/m² | - |
| 1777791260 | 6.67° C | 57% | 1011.5 hPa | 0 mm | - | 0 W/m² | - |
| 1777790957 | 6.67° C | 57% | 1011.4 hPa | 0 mm | - | 0 W/m² | - |
| 1777790655 | 6.67° C | 57% | 1011.6 hPa | 0 mm | - | 0 W/m² | - |
| 1777790351 | 7.22° C | 56% | 1011.6 hPa | 0 mm | - | 0 W/m² | - |
| 1777790049 | 7.22° C | 55% | 1011.6 hPa | 0 mm | - | 0 W/m² | - |
| 1777789747 | 7.22° C | 56% | 1011.6 hPa | 0 mm | - | 0 W/m² | - |
| 1777789446 | 7.22° C | 55% | 1011.5 hPa | 0 mm | - | 0 W/m² | - |
| 1777789143 | 7.22° C | 53% | 1011.6 hPa | 0 mm | - | 0 W/m² | - |
| 1777788840 | 7.22° C | 54% | 1011.6 hPa | 0 mm | - | 0 W/m² | - |
| 1777788535 | 7.78° C | 53% | 1011.7 hPa | 0 mm | - | 0 W/m² | - |
| 1777788230 | 7.78° C | 53% | 1011.7 hPa | 0 mm | - | 0 W/m² | - |
| 1777787926 | 7.78° C | 54% | 1011.9 hPa | 0 mm | - | 0 W/m² | - |
| 1777787622 | 7.78° C | 53% | 1011.6 hPa | 0 mm | - | 0 W/m² | - |
| 1777787318 | 7.78° C | 54% | 1011.7 hPa | 0 mm | - | 0 W/m² | - |
| 1777787014 | 7.78° C | 51% | 1011.9 hPa | 0 mm | - | 0 W/m² | - |
| 1777786712 | 7.78° C | 52% | 1011.9 hPa | 0 mm | - | 0 W/m² | - |
| 1777786410 | 7.78° C | 52% | 1011.8 hPa | 0 mm | - | 0 W/m² | - |
| 1777786106 | 7.78° C | 52% | 1012 hPa | 0 mm | - | 0 W/m² | - |
| 1777785803 | 8.33° C | 51% | 1011.8 hPa | 0 mm | - | 0 W/m² | - |
| 1777785499 | 8.33° C | 52% | 1011.9 hPa | 0 mm | - | 0 W/m² | - |
| 1777785195 | 8.33° C | 52% | 1012.1 hPa | 0 mm | - | 0 W/m² | - |
| 1777784892 | 8.33° C | 51% | 1012.1 hPa | 0 mm | - | 0 W/m² | - |
| 1777784589 | 8.33° C | 53% | 1011.9 hPa | 0 mm | - | 0 W/m² | - |
* Rain latest hour (hover to see other rain measurements)
** Current wind speed in m/s (hover to see current wind gust speed)